User: anonymous   Login
Location: Powder Track
(41.8531°N, 72.3584°W)
Time: 10:10:40
(UTC+00:00)
Language:

Courier 1B Rocket - Orbit

View from above orbital plane
View from above orbital plane
View from above satellite
View from above satellite

Ground track
Ground track

The orbit data is extracted from the following two-line orbital elements,

1 00059U 60013B   21211.86282145  .00000088  00000-0  16103-5 0  9999
2 00059  28.2477 280.2879 0189216 114.0465 248.0003 13.52986510  1615
Epoch (UTC): 30 July 2021 20:42:27
Eccentricity: 0.0189216
inclination: 28.2477°
perigee height: 920 km
apogee height: 1202 km
right ascension of ascending node: 280.2879°
argument of perigee: 114.0465°
revolutions per day: 13.52986510
mean anomaly at epoch: 248.0003°
orbit number at epoch: 161

The dashed part of the orbit path shows where the satellite is in the earth's shadow,  

DLR